Location: Sungai Liu
(2.3667°N, 113.8667°E)
Time: 13:34:55
(UTC+00:00)

Meteor 1-11 - Pass Details

Date: 20 May 2022
Orbit: 839 x 888 km, 81.2° (Epoch: 06 July)

Event Time Altitude Azimuth Distance (km) Brightness Sun altitude
Exits shadow 20:33:15 50° 285° (WNW) 1,110 4.4 -24.3°
Drops below altitude 10° 20:38:34 10° 350° (N) 2,541 6.8 -23.1°
Sets 20:41:05 0° 355° (N) 3,478 7.6 -22.5°
